Time,TemperatureF,DewpointF,PressureIn,WindDirection,WindDirectionDegrees,WindSpeedMPH,WindSpeedGustMPH,Humidity,HourlyPrecipIn,Conditions,Clouds,dailyrainin,SoftwareType,DateUTC
2013-09-26 00:02:00,55.2,49.4,29.91,NNE,23,0.0,0.0,81,0.00,,,0.00,WUHU216HW,2013-09-26 04:02:00,
2013-09-26 00:07:00,55.2,49.4,29.91,NNE,23,0.0,0.0,81,0.00,,,0.00,WUHU216HW,2013-09-26 04:07:00,
2013-09-26 00:13:00,55.2,49.7,29.92,NNE,23,0.0,0.0,82,0.00,,,0.00,WUHU216HW,2013-09-26 04:13:00,
2013-09-26 00:18:00,55.0,49.5,29.92,NNE,23,0.0,0.0,82,0.00,,,0.00,WUHU216HW,2013-09-26 04:18:00,
2013-09-26 00:24:00,55.0,49.5,29.92,NNE,23,0.0,0.0,82,0.00,,,0.00,WUHU216HW,2013-09-26 04:24:00,
2013-09-26 00:29:00,54.8,49.4,29.92,NNE,23,0.0,0.0,82,0.00,,,0.00,WUHU216HW,2013-09-26 04:29:00,
2013-09-26 00:35:00,54.8,49.4,29.92,NNE,23,0.0,0.0,82,0.00,,,0.00,WUHU216HW,2013-09-26 04:35:00,
2013-09-26 00:40:00,54.6,49.5,29.91,NNE,23,0.0,0.0,83,0.00,,,0.00,WUHU216HW,2013-09-26 04:40:00,
2013-09-26 00:45:00,54.6,49.5,29.91,NNE,23,0.0,0.0,83,0.00,,,0.00,WUHU216HW,2013-09-26 04:45:00,
2013-09-26 00:50:00,54.6,49.5,29.92,NNE,23,0.0,0.0,83,0.00,,,0.00,WUHU216HW,2013-09-26 04:50:00,
2013-09-26 00:56:00,54.5,49.4,29.91,NNE,23,0.0,0.0,83,0.00,,,0.00,WUHU216HW,2013-09-26 04:56:00,
2013-09-26 01:01:00,54.3,49.2,29.91,NNE,23,0.0,0.0,83,0.00,,,0.00,WUHU216HW,2013-09-26 05:01:00,
2013-09-26 01:07:00,54.3,49.2,29.91,NNE,23,0.0,0.0,83,0.00,,,0.00,WUHU216HW,2013-09-26 05:07:00,
2013-09-26 01:12:00,54.3,49.2,29.91,NNE,23,0.0,0.0,83,0.00,,,0.00,WUHU216HW,2013-09-26 05:12:00,
2013-09-26 01:18:00,54.1,49.0,29.91,NNE,23,0.0,0.0,83,0.00,,,0.00,WUHU216HW,2013-09-26 05:18:00,
2013-09-26 01:23:00,54.1,49.0,29.91,NNE,23,0.0,0.0,83,0.00,,,0.00,WUHU216HW,2013-09-26 05:23:00,
2013-09-26 01:28:00,54.1,49.3,29.91,NNE,23,0.0,0.0,84,0.00,,,0.00,WUHU216HW,2013-09-26 05:28:00,
2013-09-26 01:39:00,53.9,49.2,29.91,NNE,23,0.0,0.0,84,0.00,,,0.00,WUHU216HW,2013-09-26 05:39:00,
2013-09-26 01:44:00,53.9,49.2,29.91,NNE,23,0.0,0.0,84,0.00,,,0.00,WUHU216HW,2013-09-26 05:44:00,
2013-09-26 01:49:00,53.7,49.0,29.91,NNE,23,0.0,0.0,84,0.00,,,0.00,WUHU216HW,2013-09-26 05:49:00,
2013-09-26 01:55:00,53.7,49.0,29.91,NNE,23,0.0,0.0,84,0.00,,,0.00,WUHU216HW,2013-09-26 05:55:00,
2013-09-26 02:01:00,53.7,49.0,29.91,NNE,23,0.0,0.0,84,0.00,,,0.00,WUHU216HW,2013-09-26 06:01:00,
2013-09-26 02:06:00,53.7,49.0,29.91,NNE,23,0.0,0.0,84,0.00,,,0.00,WUHU216HW,2013-09-26 06:06:00,
2013-09-26 02:11:00,53.6,48.8,29.91,NNE,23,0.0,0.0,84,0.00,,,0.00,WUHU216HW,2013-09-26 06:11:00,
2013-09-26 02:16:00,53.6,48.8,29.91,NNE,23,0.0,0.0,84,0.00,,,0.00,WUHU216HW,2013-09-26 06:16:00,
2013-09-26 02:21:00,53.4,48.7,29.91,NNE,23,0.0,0.0,84,0.00,,,0.00,WUHU216HW,2013-09-26 06:21:00,
2013-09-26 02:26:00,53.4,48.7,29.92,NNE,23,0.0,0.0,84,0.00,,,0.00,WUHU216HW,2013-09-26 06:26:00,
2013-09-26 02:31:00,53.2,48.8,29.92,NNE,23,0.0,0.0,85,0.00,,,0.00,WUHU216HW,2013-09-26 06:31:00,
2013-09-26 02:36:00,53.2,48.8,29.92,NNE,23,0.0,0.0,85,0.00,,,0.00,WUHU216HW,2013-09-26 06:36:00,
2013-09-26 02:46:00,53.2,48.8,29.91,NNE,23,0.0,0.0,85,0.00,,,0.00,WUHU216HW,2013-09-26 06:46:00,
2013-09-26 02:52:00,53.0,48.6,29.92,NNE,23,0.0,0.0,85,0.00,,,0.00,WUHU216HW,2013-09-26 06:52:00,
2013-09-26 03:02:00,52.8,48.4,29.92,NNE,23,0.0,0.0,85,0.00,,,0.00,WUHU216HW,2013-09-26 07:02:00,
2013-09-26 03:08:00,52.7,48.2,29.92,NNE,23,0.0,0.0,85,0.00,,,0.00,WUHU216HW,2013-09-26 07:08:00,
2013-09-26 03:13:00,52.5,48.1,29.92,NNE,23,0.0,0.0,85,0.00,,,0.00,WUHU216HW,2013-09-26 07:13:00,
2013-09-26 03:18:00,52.3,47.9,29.92,NNE,23,0.0,0.0,85,0.00,,,0.00,WUHU216HW,2013-09-26 07:18:00,
2013-09-26 03:24:00,52.3,47.9,29.92,NNE,23,0.0,0.0,85,0.00,,,0.00,WUHU216HW,2013-09-26 07:24:00,
2013-09-26 03:29:00,52.1,47.7,29.92,NNE,23,0.0,0.0,85,0.00,,,0.00,WUHU216HW,2013-09-26 07:29:00,
2013-09-26 03:35:00,51.9,47.5,29.92,NNE,23,0.0,0.0,85,0.00,,,0.00,WUHU216HW,2013-09-26 07:35:00,
2013-09-26 03:41:00,51.8,47.6,29.92,NNE,23,0.0,0.0,86,0.00,,,0.00,WUHU216HW,2013-09-26 07:41:00,
2013-09-26 03:47:00,51.6,47.5,29.92,NNE,23,0.0,0.0,86,0.00,,,0.00,WUHU216HW,2013-09-26 07:47:00,
2013-09-26 03:53:00,51.4,47.3,29.92,NNE,23,0.0,0.0,86,0.00,,,0.00,WUHU216HW,2013-09-26 07:53:00,
2013-09-26 03:59:00,51.4,47.3,29.92,NNE,23,0.0,0.0,86,0.00,,,0.00,WUHU216HW,2013-09-26 07:59:00,
2013-09-26 04:04:00,51.2,47.1,29.92,NNE,23,0.0,0.0,86,0.00,,,0.00,WUHU216HW,2013-09-26 08:04:00,
2013-09-26 04:09:00,51.0,46.6,29.92,NNE,23,0.0,0.0,85,0.00,,,0.00,WUHU216HW,2013-09-26 08:09:00,
2013-09-26 04:14:00,50.9,46.7,29.92,NNE,23,0.0,0.0,86,0.00,,,0.00,WUHU216HW,2013-09-26 08:14:00,
2013-09-26 04:19:00,50.9,46.7,29.92,NNE,23,0.0,0.0,86,0.00,,,0.00,WUHU216HW,2013-09-26 08:19:00,
2013-09-26 04:25:00,50.7,46.6,29.92,NNE,23,0.0,0.0,86,0.00,,,0.00,WUHU216HW,2013-09-26 08:25:00,
2013-09-26 04:30:00,50.5,46.4,29.92,NNE,23,0.0,0.0,86,0.00,,,0.00,WUHU216HW,2013-09-26 08:30:00,
2013-09-26 04:36:00,50.3,46.2,29.92,NNE,23,0.0,0.0,86,0.00,,,0.00,WUHU216HW,2013-09-26 08:36:00,
2013-09-26 04:42:00,50.1,46.0,29.92,NNE,23,0.0,0.0,86,0.00,,,0.00,WUHU216HW,2013-09-26 08:42:00,
2013-09-26 04:47:00,50.1,46.0,29.92,NNE,23,0.0,0.0,86,0.00,,,0.00,WUHU216HW,2013-09-26 08:47:00,
2013-09-26 04:53:00,50.1,46.0,29.92,NNE,23,0.0,0.0,86,0.00,,,0.00,WUHU216HW,2013-09-26 08:53:00,
2013-09-26 04:59:00,49.8,45.7,29.92,NNE,23,0.0,0.0,86,0.00,,,0.00,WUHU216HW,2013-09-26 08:59:00,
2013-09-26 05:05:00,49.8,45.7,29.92,NNE,23,0.0,0.0,86,0.00,,,0.00,WUHU216HW,2013-09-26 09:05:00,
2013-09-26 05:10:00,49.8,45.7,29.92,NNE,23,0.0,0.0,86,0.00,,,0.00,WUHU216HW,2013-09-26 09:10:00,
2013-09-26 05:16:00,49.6,45.8,29.93,NNE,23,0.0,0.0,87,0.00,,,0.00,WUHU216HW,2013-09-26 09:16:00,
2013-09-26 05:22:00,49.6,45.8,29.93,NNE,23,0.0,0.0,87,0.00,,,0.00,WUHU216HW,2013-09-26 09:22:00,
2013-09-26 05:27:00,49.6,45.8,29.92,NNE,23,0.0,0.0,87,0.00,,,0.00,WUHU216HW,2013-09-26 09:27:00,
2013-09-26 05:32:00,49.2,45.5,29.93,NNE,23,0.0,0.0,87,0.00,,,0.00,WUHU216HW,2013-09-26 09:32:00,
2013-09-26 05:37:00,49.2,45.5,29.93,NNE,23,0.0,0.0,87,0.00,,,0.00,WUHU216HW,2013-09-26 09:37:00,
2013-09-26 05:42:00,49.1,45.3,29.93,NNE,23,0.0,0.0,87,0.00,,,0.00,WUHU216HW,2013-09-26 09:42:00,
2013-09-26 05:47:00,49.1,45.3,29.93,NNE,23,0.0,0.0,87,0.00,,,0.00,WUHU216HW,2013-09-26 09:47:00,
2013-09-26 05:53:00,48.9,45.1,29.93,NNE,23,0.0,0.0,87,0.00,,,0.00,WUHU216HW,2013-09-26 09:53:00,
2013-09-26 05:59:00,48.7,45.0,29.93,NNE,23,0.0,0.0,87,0.00,,,0.00,WUHU216HW,2013-09-26 09:59:00,
2013-09-26 06:04:00,48.7,45.0,29.93,NNE,23,0.0,0.0,87,0.00,,,0.00,WUHU216HW,2013-09-26 10:04:00,
2013-09-26 06:09:00,48.7,45.0,29.93,NNE,23,0.0,0.0,87,0.00,,,0.00,WUHU216HW,2013-09-26 10:09:00,
2013-09-26 06:14:00,48.5,44.8,29.94,NNE,23,0.0,0.0,87,0.00,,,0.00,WUHU216HW,2013-09-26 10:14:00,
2013-09-26 06:20:00,48.3,44.6,29.94,NNE,23,0.0,0.0,87,0.00,,,0.00,WUHU216HW,2013-09-26 10:20:00,
2013-09-26 06:25:00,48.2,44.5,29.94,NNE,23,0.0,0.0,87,0.00,,,0.00,WUHU216HW,2013-09-26 10:25:00,
2013-09-26 06:30:00,48.0,44.3,29.95,NNE,23,0.0,0.0,87,0.00,,,0.00,WUHU216HW,2013-09-26 10:30:00,
2013-09-26 06:36:00,48.0,44.3,29.95,NNE,23,0.0,0.0,87,0.00,,,0.00,WUHU216HW,2013-09-26 10:36:00,
2013-09-26 06:41:00,47.8,44.1,29.95,NNE,23,0.0,0.0,87,0.00,,,0.00,WUHU216HW,2013-09-26 10:41:00,
2013-09-26 06:47:00,47.8,44.1,29.95,NNE,23,0.0,0.0,87,0.00,,,0.00,WUHU216HW,2013-09-26 10:47:00,
2013-09-26 06:52:00,47.6,44.3,29.95,NNE,23,0.0,0.0,88,0.00,,,0.00,WUHU216HW,2013-09-26 10:52:00,
2013-09-26 06:57:00,47.4,44.1,29.95,NNE,23,0.0,0.0,88,0.00,,,0.00,WUHU216HW,2013-09-26 10:57:00,
2013-09-26 07:02:00,47.4,44.1,29.95,NNE,23,0.0,0.0,88,0.00,,,0.00,WUHU216HW,2013-09-26 11:02:00,
2013-09-26 07:07:00,47.4,44.1,29.96,NNE,23,0.0,0.0,88,0.00,,,0.00,WUHU216HW,2013-09-26 11:07:00,
2013-09-26 07:13:00,47.3,43.9,29.96,NNE,23,0.0,0.0,88,0.00,,,0.00,WUHU216HW,2013-09-26 11:13:00,
2013-09-26 07:18:00,47.1,43.7,29.96,NNE,23,0.0,0.0,88,0.00,,,0.00,WUHU216HW,2013-09-26 11:18:00,
2013-09-26 07:23:00,47.1,43.7,29.96,NNE,23,0.0,0.0,88,0.00,,,0.00,WUHU216HW,2013-09-26 11:23:00,
2013-09-26 07:28:00,47.1,43.7,29.96,NNE,23,0.0,0.0,88,0.00,,,0.00,WUHU216HW,2013-09-26 11:28:00,
2013-09-26 07:33:00,46.9,43.6,29.97,NNE,23,0.0,0.0,88,0.00,,,0.00,WUHU216HW,2013-09-26 11:33:00,
2013-09-26 07:39:00,46.9,43.6,29.96,NNE,23,0.0,0.0,88,0.00,,,0.00,WUHU216HW,2013-09-26 11:39:00,
2013-09-26 07:45:00,46.9,43.6,29.96,NNE,23,0.0,0.0,88,0.00,,,0.00,WUHU216HW,2013-09-26 11:45:00,
2013-09-26 07:50:00,46.9,43.6,29.97,NNE,23,0.0,0.0,88,0.00,,,0.00,WUHU216HW,2013-09-26 11:50:00,
2013-09-26 07:56:00,47.1,43.7,29.96,NNE,23,0.0,0.0,88,0.00,,,0.00,WUHU216HW,2013-09-26 11:56:00,
2013-09-26 08:07:00,47.1,43.7,29.97,NNE,23,0.0,0.0,88,0.00,,,0.00,WUHU216HW,2013-09-26 12:07:00,
2013-09-26 08:12:00,47.3,44.2,29.97,NNE,23,0.0,0.0,89,0.00,,,0.00,WUHU216HW,2013-09-26 12:12:00,
2013-09-26 08:17:00,47.3,44.2,29.97,NNE,23,0.0,0.0,89,0.00,,,0.00,WUHU216HW,2013-09-26 12:17:00,
2013-09-26 08:23:00,47.6,44.6,29.97,NNE,23,0.0,0.0,89,0.00,,,0.00,WUHU216HW,2013-09-26 12:23:00,
2013-09-26 08:28:00,47.8,44.8,29.97,NNE,23,0.0,0.0,89,0.00,,,0.00,WUHU216HW,2013-09-26 12:28:00,
2013-09-26 08:33:00,48.0,44.9,29.97,NNE,23,0.0,0.0,89,0.00,,,0.00,WUHU216HW,2013-09-26 12:33:00,
2013-09-26 08:38:00,48.0,44.9,29.97,NNE,23,0.0,0.0,89,0.00,,,0.00,WUHU216HW,2013-09-26 12:38:00,
2013-09-26 08:43:00,48.5,45.5,29.97,NNE,23,0.0,0.0,89,0.00,,,0.00,WUHU216HW,2013-09-26 12:43:00,
2013-09-26 08:49:00,48.9,46.1,29.98,NNE,23,0.0,0.0,90,0.00,,,0.00,WUHU216HW,2013-09-26 12:49:00,
2013-09-26 08:55:00,49.6,46.7,29.98,NNE,23,0.0,0.0,90,0.00,,,0.00,WUHU216HW,2013-09-26 12:55:00,
2013-09-26 09:01:00,50.1,47.3,29.98,NNE,23,0.0,0.0,90,0.00,,,0.00,WUHU216HW,2013-09-26 13:01:00,
2013-09-26 09:07:00,50.5,47.6,29.98,NNE,23,0.0,0.0,90,0.00,,,0.00,WUHU216HW,2013-09-26 13:07:00,
2013-09-26 09:13:00,51.4,48.8,29.99,NNE,23,0.0,0.0,91,0.00,,,0.00,WUHU216HW,2013-09-26 13:13:00,
2013-09-26 09:19:00,52.1,49.5,29.99,NNE,23,0.0,0.0,91,0.00,,,0.00,WUHU216HW,2013-09-26 13:19:00,
2013-09-26 09:25:00,52.8,50.2,29.99,NNE,23,0.0,0.0,91,0.00,,,0.00,WUHU216HW,2013-09-26 13:25:00,
2013-09-26 09:30:00,53.4,50.8,29.99,NNE,23,0.0,0.0,91,0.00,,,0.00,WUHU216HW,2013-09-26 13:30:00,
2013-09-26 09:36:00,54.1,51.5,29.99,NNE,23,0.0,0.0,91,0.00,,,0.00,WUHU216HW,2013-09-26 13:36:00,
2013-09-26 09:42:00,55.0,52.4,29.99,NNE,23,0.0,0.0,91,0.00,,,0.00,WUHU216HW,2013-09-26 13:42:00,
2013-09-26 09:47:00,55.2,52.6,29.99,NNE,23,0.0,0.0,91,0.00,,,0.00,WUHU216HW,2013-09-26 13:47:00,
2013-09-26 09:53:00,55.9,53.3,29.99,NNE,23,0.0,0.0,91,0.00,,,0.00,WUHU216HW,2013-09-26 13:53:00,
2013-09-26 09:58:00,56.4,53.8,30.00,NNE,23,0.0,0.0,91,0.00,,,0.00,WUHU216HW,2013-09-26 13:58:00,
2013-09-26 10:03:00,57.2,54.3,30.00,NNE,23,0.0,0.0,90,0.00,,,0.00,WUHU216HW,2013-09-26 14:03:00,
2013-09-26 10:08:00,57.7,54.5,30.00,NNE,23,0.0,0.0,89,0.00,,,0.00,WUHU216HW,2013-09-26 14:08:00,
2013-09-26 10:13:00,58.1,54.8,29.99,NNE,23,0.0,0.0,89,0.00,,,0.00,WUHU216HW,2013-09-26 14:13:00,
2013-09-26 10:18:00,58.6,55.2,30.00,NNE,23,0.0,0.0,89,0.00,,,0.00,WUHU216HW,2013-09-26 14:18:00,
2013-09-26 10:24:00,59.1,55.6,30.00,NNE,23,0.0,0.0,88,0.00,,,0.00,WUHU216HW,2013-09-26 14:24:00,
2013-09-26 10:29:00,60.0,56.2,30.00,NNE,23,0.0,0.0,87,0.00,,,0.00,WUHU216HW,2013-09-26 14:29:00,
2013-09-26 10:35:00,60.6,56.7,30.00,NNE,23,0.0,0.0,87,0.00,,,0.00,WUHU216HW,2013-09-26 14:35:00,
2013-09-26 10:41:00,61.3,57.1,30.00,NNE,23,0.0,0.0,86,0.00,,,0.00,WUHU216HW,2013-09-26 14:41:00,
2013-09-26 10:46:00,62.2,57.6,30.00,NNE,23,0.0,0.0,85,0.00,,,0.00,WUHU216HW,2013-09-26 14:46:00,
2013-09-26 10:51:00,62.4,57.4,30.00,NNE,23,0.0,0.0,84,0.00,,,0.00,WUHU216HW,2013-09-26 14:51:00,
2013-09-26 10:56:00,63.1,57.8,30.00,NNE,23,0.0,0.0,83,0.00,,,0.00,WUHU216HW,2013-09-26 14:56:00,
2013-09-26 11:01:00,63.6,58.0,30.01,NNE,23,0.0,0.0,82,0.00,,,0.00,WUHU216HW,2013-09-26 15:01:00,
2013-09-26 11:07:00,64.2,58.6,30.01,NNE,23,0.0,0.0,82,0.00,,,0.00,WUHU216HW,2013-09-26 15:07:00,
2013-09-26 11:12:00,65.1,59.1,30.01,NNE,23,0.0,0.0,81,0.00,,,0.00,WUHU216HW,2013-09-26 15:12:00,
2013-09-26 11:17:00,65.4,59.1,30.01,NNE,23,0.0,0.0,80,0.00,,,0.00,WUHU216HW,2013-09-26 15:17:00,
2013-09-26 11:22:00,66.0,59.7,30.01,NNE,23,0.0,0.0,80,0.00,,,0.00,WUHU216HW,2013-09-26 15:22:00,
2013-09-26 11:28:00,66.7,60.0,30.01,NNE,23,0.0,0.0,79,0.00,,,0.00,WUHU216HW,2013-09-26 15:28:00,
2013-09-26 11:33:00,67.1,59.2,30.01,NNE,23,0.0,0.0,76,0.00,,,0.00,WUHU216HW,2013-09-26 15:33:00,
2013-09-26 11:38:00,67.6,59.8,30.02,NNE,23,0.0,0.0,76,0.00,,,0.00,WUHU216HW,2013-09-26 15:38:00,
2013-09-26 11:44:00,68.1,59.5,30.01,NNE,23,0.0,0.0,74,0.00,,,0.00,WUHU216HW,2013-09-26 15:44:00,
2013-09-26 11:49:00,68.5,59.9,30.01,NNE,23,0.0,0.0,74,0.00,,,0.00,WUHU216HW,2013-09-26 15:49:00,
2013-09-26 11:55:00,68.9,59.8,30.01,NNE,23,0.0,0.0,73,0.00,,,0.00,WUHU216HW,2013-09-26 15:55:00,
2013-09-26 12:00:00,69.4,59.9,30.01,NNE,23,0.0,0.0,72,0.00,,,0.00,WUHU216HW,2013-09-26 16:00:00,
2013-09-26 12:05:00,69.9,60.0,30.01,NNE,23,0.0,0.0,71,0.00,,,0.00,WUHU216HW,2013-09-26 16:05:00,
2013-09-26 12:11:00,70.1,60.2,30.01,NNE,23,0.0,0.0,71,0.00,,,0.00,WUHU216HW,2013-09-26 16:11:00,
2013-09-26 12:16:00,70.5,59.8,30.01,NNE,23,0.0,0.0,69,0.00,,,0.00,WUHU216HW,2013-09-26 16:16:00,
2013-09-26 12:22:00,70.7,59.5,30.00,NNE,23,0.0,0.0,68,0.00,,,0.00,WUHU216HW,2013-09-26 16:22:00,
2013-09-26 12:28:00,71.2,59.6,30.00,NNE,23,0.0,0.0,67,0.00,,,0.00,WUHU216HW,2013-09-26 16:28:00,
2013-09-26 12:33:00,71.4,59.8,30.00,NNE,23,0.0,0.0,67,0.00,,,0.00,WUHU216HW,2013-09-26 16:33:00,
2013-09-26 12:38:00,71.4,59.8,30.00,NNE,23,0.0,0.0,67,0.00,,,0.00,WUHU216HW,2013-09-26 16:38:00,
2013-09-26 12:43:00,71.7,59.3,30.00,NNE,23,0.0,0.0,65,0.00,,,0.00,WUHU216HW,2013-09-26 16:43:00,
2013-09-26 12:49:00,72.3,58.9,30.00,NNE,23,0.0,0.0,63,0.00,,,0.00,WUHU216HW,2013-09-26 16:49:00,
2013-09-26 12:54:00,72.5,59.1,30.00,NNE,23,0.0,0.0,63,0.00,,,0.00,WUHU216HW,2013-09-26 16:54:00,
2013-09-26 13:00:00,73.0,58.7,30.00,NNE,23,0.0,0.0,61,0.00,,,0.00,WUHU216HW,2013-09-26 17:00:00,
2013-09-26 13:06:00,73.2,58.9,30.00,NNE,23,0.0,0.0,61,0.00,,,0.00,WUHU216HW,2013-09-26 17:06:00,
2013-09-26 13:11:00,73.7,59.4,30.00,NNE,23,0.0,0.0,61,0.00,,,0.00,WUHU216HW,2013-09-26 17:11:00,
2013-09-26 13:17:00,74.1,58.8,30.00,NNE,23,0.0,0.0,59,0.00,,,0.00,WUHU216HW,2013-09-26 17:17:00,
2013-09-26 13:22:00,74.4,58.7,30.00,NNE,23,0.0,0.0,58,0.00,,,0.00,WUHU216HW,2013-09-26 17:22:00,
2013-09-26 13:27:00,74.8,59.0,29.99,NNE,23,0.0,0.0,58,0.00,,,0.00,WUHU216HW,2013-09-26 17:27:00,
2013-09-26 13:32:00,75.0,58.7,29.99,NNE,23,0.0,0.0,57,0.00,,,0.00,WUHU216HW,2013-09-26 17:32:00,
2013-09-26 13:38:00,75.3,58.0,29.99,NNE,23,0.0,0.0,55,0.00,,,0.00,WUHU216HW,2013-09-26 17:38:00,
2013-09-26 13:43:00,75.5,57.7,29.99,NNE,23,0.0,0.0,54,0.00,,,0.00,WUHU216HW,2013-09-26 17:43:00,
2013-09-26 13:48:00,75.7,57.9,29.99,NNE,23,0.0,0.0,54,0.00,,,0.00,WUHU216HW,2013-09-26 17:48:00,
2013-09-26 13:54:00,75.9,58.0,29.98,NNE,23,0.0,0.0,54,0.00,,,0.00,WUHU216HW,2013-09-26 17:54:00,
2013-09-26 13:59:00,76.2,57.3,29.98,NNE,23,0.0,5.3,52,0.00,,,0.00,WUHU216HW,2013-09-26 17:59:00,
2013-09-26 14:05:00,76.2,56.8,29.99,NNE,23,0.0,5.3,51,0.00,,,0.00,WUHU216HW,2013-09-26 18:05:00,
2013-09-26 14:10:00,76.6,57.2,29.98,NNE,23,0.0,0.0,51,0.00,,,0.00,WUHU216HW,2013-09-26 18:10:00,
2013-09-26 14:16:00,77.1,58.1,29.98,North,0,0.0,0.0,52,0.00,,,0.00,WUHU216HW,2013-09-26 18:16:00,
2013-09-26 14:21:00,77.5,58.0,29.98,North,0,0.0,0.0,51,0.00,,,0.00,WUHU216HW,2013-09-26 18:21:00,
2013-09-26 14:27:00,77.7,57.6,29.98,WSW,248,0.0,0.0,50,0.00,,,0.00,WUHU216HW,2013-09-26 18:27:00,
2013-09-26 14:33:00,78.0,58.4,29.98,WSW,248,0.0,0.0,51,0.00,,,0.00,WUHU216HW,2013-09-26 18:33:00,
2013-09-26 14:38:00,78.2,58.1,29.98,WSW,248,0.0,0.0,50,0.00,,,0.00,WUHU216HW,2013-09-26 18:38:00,
2013-09-26 14:44:00,78.6,58.4,29.98,WSW,248,0.0,0.0,50,0.00,,,0.00,WUHU216HW,2013-09-26 18:44:00,
2013-09-26 14:50:00,79.1,58.9,29.98,WSW,248,0.0,0.0,50,0.00,,,0.00,WUHU216HW,2013-09-26 18:50:00,
2013-09-26 14:55:00,79.3,58.5,29.98,WSW,248,0.0,0.0,49,0.00,,,0.00,WUHU216HW,2013-09-26 18:55:00,
2013-09-26 15:00:00,79.1,57.7,29.98,WSW,248,0.0,0.0,48,0.00,,,0.00,WUHU216HW,2013-09-26 19:00:00,
2013-09-26 15:06:00,79.3,58.5,29.98,WSW,248,0.0,0.0,49,0.00,,,0.00,WUHU216HW,2013-09-26 19:06:00,
2013-09-26 15:12:00,79.7,58.8,29.98,WSW,248,0.0,0.0,49,0.00,,,0.00,WUHU216HW,2013-09-26 19:12:00,
2013-09-26 15:18:00,80.2,58.7,29.98,WSW,248,0.0,0.0,48,0.00,,,0.00,WUHU216HW,2013-09-26 19:18:00,
2013-09-26 15:23:00,80.2,58.1,29.98,WSW,248,0.0,0.0,47,0.00,,,0.00,WUHU216HW,2013-09-26 19:23:00,
2013-09-26 15:29:00,80.7,59.1,29.98,WSW,248,0.0,0.0,48,0.00,,,0.00,WUHU216HW,2013-09-26 19:29:00,
2013-09-26 15:35:00,80.7,57.9,29.98,WSW,248,0.0,5.1,46,0.00,,,0.00,WUHU216HW,2013-09-26 19:35:00,
2013-09-26 15:40:00,80.7,57.9,29.98,WSW,248,0.0,5.1,46,0.00,,,0.00,WUHU216HW,2013-09-26 19:40:00,
2013-09-26 15:46:00,80.7,57.9,29.98,WSW,248,0.0,0.0,46,0.00,,,0.00,WUHU216HW,2013-09-26 19:46:00,
2013-09-26 15:52:00,80.9,58.1,29.98,WSW,248,0.0,0.0,46,0.00,,,0.00,WUHU216HW,2013-09-26 19:52:00,
2013-09-26 15:57:00,80.9,58.1,29.98,WSW,248,0.0,0.0,46,0.00,,,0.00,WUHU216HW,2013-09-26 19:57:00,
2013-09-26 16:02:00,80.7,57.9,29.98,WSW,248,0.0,0.0,46,0.00,,,0.00,WUHU216HW,2013-09-26 20:02:00,
2013-09-26 16:08:00,80.7,57.9,29.98,WSW,248,0.0,0.0,46,0.00,,,0.00,WUHU216HW,2013-09-26 20:08:00,
2013-09-26 16:14:00,80.9,58.1,29.98,WSW,248,0.0,0.0,46,0.00,,,0.00,WUHU216HW,2013-09-26 20:14:00,
2013-09-26 16:19:00,80.6,57.2,29.98,WSW,248,0.0,0.0,45,0.00,,,0.00,WUHU216HW,2013-09-26 20:19:00,
2013-09-26 16:25:00,80.4,57.6,29.98,WSW,248,0.0,0.0,46,0.00,,,0.00,WUHU216HW,2013-09-26 20:25:00,
2013-09-26 16:30:00,80.4,57.0,29.98,WSW,248,3.8,3.8,45,0.00,,,0.00,WUHU216HW,2013-09-26 20:30:00,
2013-09-26 16:36:00,79.8,55.9,29.98,WSW,248,0.0,3.8,44,0.00,,,0.00,WUHU216HW,2013-09-26 20:36:00,
2013-09-26 16:41:00,79.8,57.1,29.98,WSW,248,0.0,0.0,46,0.00,,,0.00,WUHU216HW,2013-09-26 20:41:00,
2013-09-26 16:47:00,80.2,56.8,29.98,WSW,248,0.0,0.0,45,0.00,,,0.00,WUHU216HW,2013-09-26 20:47:00,
2013-09-26 16:52:00,80.6,60.2,29.98,WSW,248,0.0,0.0,50,0.00,,,0.00,WUHU216HW,2013-09-26 20:52:00,
2013-09-26 17:02:00,80.9,61.1,29.98,WSW,248,0.0,0.0,51,0.00,,,0.00,WUHU216HW,2013-09-26 21:02:00,
2013-09-26 17:07:00,81.1,61.2,29.98,WSW,248,0.0,0.0,51,0.00,,,0.00,WUHU216HW,2013-09-26 21:07:00,
2013-09-26 17:13:00,80.9,60.5,29.98,WSW,248,0.0,0.0,50,0.00,,,0.00,WUHU216HW,2013-09-26 21:13:00,
2013-09-26 17:19:00,80.4,60.0,29.98,WSW,248,0.0,0.0,50,0.00,,,0.00,WUHU216HW,2013-09-26 21:19:00,
2013-09-26 17:25:00,79.8,60.1,29.99,WSW,248,0.0,0.0,51,0.00,,,0.00,WUHU216HW,2013-09-26 21:25:00,
2013-09-26 17:31:00,79.1,59.4,29.98,WSW,248,0.0,0.0,51,0.00,,,0.00,WUHU216HW,2013-09-26 21:31:00,
2013-09-26 17:36:00,78.6,59.5,29.99,WSW,248,0.0,0.0,52,0.00,,,0.00,WUHU216HW,2013-09-26 21:36:00,
2013-09-26 17:41:00,77.9,58.8,29.99,NNE,23,0.0,0.0,52,0.00,,,0.00,WUHU216HW,2013-09-26 21:41:00,
2013-09-26 17:46:00,77.1,58.6,29.99,NNE,23,0.0,0.0,53,0.00,,,0.00,WUHU216HW,2013-09-26 21:46:00,
2013-09-26 17:52:00,76.2,58.3,30.00,NNE,23,0.0,0.0,54,0.00,,,0.00,WUHU216HW,2013-09-26 21:52:00,
2013-09-26 17:57:00,75.7,57.9,30.00,NNE,23,0.0,0.0,54,0.00,,,0.00,WUHU216HW,2013-09-26 21:57:00,
2013-09-26 18:02:00,75.0,57.2,30.00,NNE,23,0.0,0.0,54,0.00,,,0.00,WUHU216HW,2013-09-26 22:02:00,
2013-09-26 18:07:00,74.3,56.5,30.00,NNE,23,2.4,2.4,54,0.00,,,0.00,WUHU216HW,2013-09-26 22:07:00,
2013-09-26 18:13:00,73.9,56.3,30.00,NNE,23,0.0,2.4,54,0.00,,,0.00,WUHU216HW,2013-09-26 22:13:00,
2013-09-26 18:18:00,73.2,55.9,30.00,NNE,23,0.0,2.4,55,0.00,,,0.00,WUHU216HW,2013-09-26 22:18:00,
2013-09-26 18:24:00,72.6,55.9,30.00,NNE,23,0.0,0.0,56,0.00,,,0.00,WUHU216HW,2013-09-26 22:24:00,
2013-09-26 18:30:00,72.1,55.4,30.01,NNE,23,0.0,0.0,56,0.00,,,0.00,WUHU216HW,2013-09-26 22:30:00,
2013-09-26 18:35:00,71.4,55.3,30.01,NNE,23,0.0,0.0,57,0.00,,,0.00,WUHU216HW,2013-09-26 22:35:00,
2013-09-26 18:40:00,70.8,55.3,30.01,NNE,23,0.0,0.0,58,0.00,,,0.00,WUHU216HW,2013-09-26 22:40:00,
2013-09-26 18:46:00,69.9,54.5,30.01,NNE,23,0.0,0.0,58,0.00,,,0.00,WUHU216HW,2013-09-26 22:46:00,
2013-09-26 18:51:00,69.4,54.5,30.01,NNE,23,0.0,0.0,59,0.00,,,0.00,WUHU216HW,2013-09-26 22:51:00,
2013-09-26 18:57:00,68.5,54.1,30.01,NNE,23,0.0,0.0,60,0.00,,,0.00,WUHU216HW,2013-09-26 22:57:00,
2013-09-26 19:02:00,68.1,54.1,30.01,NNE,23,0.0,0.0,61,0.00,,,0.00,WUHU216HW,2013-09-26 23:02:00,
2013-09-26 19:07:00,67.6,53.6,30.02,NNE,23,0.0,0.0,61,0.00,,,0.00,WUHU216HW,2013-09-26 23:07:00,
2013-09-26 19:12:00,67.1,53.6,30.02,NNE,23,0.0,0.0,62,0.00,,,0.00,WUHU216HW,2013-09-26 23:12:00,
2013-09-26 19:17:00,66.7,53.2,30.02,NNE,23,0.0,0.0,62,0.00,,,0.00,WUHU216HW,2013-09-26 23:17:00,
2013-09-26 19:22:00,66.3,53.3,30.01,NNE,23,0.0,0.0,63,0.00,,,0.00,WUHU216HW,2013-09-26 23:22:00,
2013-09-26 19:27:00,66.0,53.0,30.02,NNE,23,0.0,0.0,63,0.00,,,0.00,WUHU216HW,2013-09-26 23:27:00,
2013-09-26 19:33:00,65.4,52.5,30.02,NNE,23,0.0,0.0,63,0.00,,,0.00,WUHU216HW,2013-09-26 23:33:00,
2013-09-26 19:38:00,65.1,52.5,30.02,NNE,23,0.0,0.0,64,0.00,,,0.00,WUHU216HW,2013-09-26 23:38:00,
2013-09-26 19:44:00,64.7,52.2,30.02,NNE,23,0.0,0.0,64,0.00,,,0.00,WUHU216HW,2013-09-26 23:44:00,
2013-09-26 19:49:00,64.5,52.5,30.02,NNE,23,0.0,0.0,65,0.00,,,0.00,WUHU216HW,2013-09-26 23:49:00,
2013-09-26 19:54:00,64.2,52.1,30.02,NNE,23,0.0,0.0,65,0.00,,,0.00,WUHU216HW,2013-09-26 23:54:00,
2013-09-26 20:00:00,63.6,51.6,30.03,NNE,23,0.0,0.0,65,0.00,,,0.00,WUHU216HW,2013-09-27 00:00:00,
2013-09-26 20:06:00,63.3,51.7,30.03,NNE,23,0.0,0.0,66,0.00,,,0.00,WUHU216HW,2013-09-27 00:06:00,
2013-09-26 20:11:00,62.9,51.5,30.03,NNE,23,0.0,0.0,66,0.00,,,0.00,WUHU216HW,2013-09-27 00:11:00,
2013-09-26 20:16:00,62.6,51.4,30.03,NNE,23,0.0,0.0,67,0.00,,,0.00,WUHU216HW,2013-09-27 00:16:00,
2013-09-26 20:22:00,62.2,51.1,30.03,NNE,23,0.0,0.0,67,0.00,,,0.00,WUHU216HW,2013-09-27 00:22:00,
2013-09-26 20:27:00,61.8,50.8,30.03,NNE,23,0.0,0.0,67,0.00,,,0.00,WUHU216HW,2013-09-27 00:27:00,
2013-09-26 20:33:00,61.5,50.9,30.03,NNE,23,0.0,0.0,68,0.00,,,0.00,WUHU216HW,2013-09-27 00:33:00,
2013-09-26 20:38:00,61.3,50.7,30.03,NNE,23,0.0,0.0,68,0.00,,,0.00,WUHU216HW,2013-09-27 00:38:00,
2013-09-26 20:43:00,60.9,50.8,30.03,NNE,23,0.0,0.0,69,0.00,,,0.00,WUHU216HW,2013-09-27 00:43:00,
2013-09-26 20:49:00,60.6,50.4,30.04,NNE,23,0.0,0.0,69,0.00,,,0.00,WUHU216HW,2013-09-27 00:49:00,
2013-09-26 20:54:00,60.4,50.7,30.03,NNE,23,0.0,0.0,70,0.00,,,0.00,WUHU216HW,2013-09-27 00:54:00,
2013-09-26 21:00:00,60.0,50.3,30.03,NNE,23,0.0,0.0,70,0.00,,,0.00,WUHU216HW,2013-09-27 01:00:00,
2013-09-26 21:05:00,59.7,50.0,30.04,NNE,23,0.0,0.0,70,0.00,,,0.00,WUHU216HW,2013-09-27 01:05:00,
2013-09-26 21:11:00,59.5,50.1,30.03,NNE,23,0.0,0.0,71,0.00,,,0.00,WUHU216HW,2013-09-27 01:11:00,
2013-09-26 21:16:00,59.1,49.8,30.04,NNE,23,0.0,0.0,71,0.00,,,0.00,WUHU216HW,2013-09-27 01:16:00,
2013-09-26 21:21:00,58.8,49.8,30.04,NNE,23,0.0,0.0,72,0.00,,,0.00,WUHU216HW,2013-09-27 01:21:00,
2013-09-26 21:26:00,58.8,49.8,30.04,NNE,23,0.0,0.0,72,0.00,,,0.00,WUHU216HW,2013-09-27 01:26:00,
2013-09-26 21:32:00,58.8,49.8,30.04,NNE,23,0.0,0.0,72,0.00,,,0.00,WUHU216HW,2013-09-27 01:32:00,
2013-09-26 21:37:00,58.4,49.8,30.04,NNE,23,0.0,0.0,73,0.00,,,0.00,WUHU216HW,2013-09-27 01:37:00,
2013-09-26 21:43:00,58.1,49.4,30.04,NNE,23,0.0,0.0,73,0.00,,,0.00,WUHU216HW,2013-09-27 01:43:00,
2013-09-26 21:49:00,57.9,49.6,30.04,NNE,23,0.0,0.0,74,0.00,,,0.00,WUHU216HW,2013-09-27 01:49:00,
2013-09-26 21:54:00,57.7,49.4,30.04,NNE,23,0.0,0.0,74,0.00,,,0.00,WUHU216HW,2013-09-27 01:54:00,
2013-09-26 22:00:00,57.5,49.1,30.04,NNE,23,0.0,0.0,74,0.00,,,0.00,WUHU216HW,2013-09-27 02:00:00,
2013-09-26 22:05:00,57.2,48.9,30.05,NNE,23,0.0,0.0,74,0.00,,,0.00,WUHU216HW,2013-09-27 02:05:00,
2013-09-26 22:11:00,57.0,48.7,30.04,NNE,23,0.0,0.0,74,0.00,,,0.00,WUHU216HW,2013-09-27 02:11:00,
2013-09-26 22:17:00,56.8,48.9,30.05,NNE,23,0.0,0.0,75,0.00,,,0.00,WUHU216HW,2013-09-27 02:17:00,
2013-09-26 22:28:00,56.3,48.4,30.05,NNE,23,0.0,0.0,75,0.00,,,0.00,WUHU216HW,2013-09-27 02:28:00,
2013-09-26 22:33:00,56.1,48.2,30.05,NNE,23,0.0,0.0,75,0.00,,,0.00,WUHU216HW,2013-09-27 02:33:00,
2013-09-26 22:38:00,55.9,48.4,30.05,NNE,23,0.0,0.0,76,0.00,,,0.00,WUHU216HW,2013-09-27 02:38:00,
2013-09-26 22:43:00,55.7,48.2,30.05,NNE,23,0.0,0.0,76,0.00,,,0.00,WUHU216HW,2013-09-27 02:43:00,
2013-09-26 22:49:00,55.5,48.0,30.05,NNE,23,0.0,0.0,76,0.00,,,0.00,WUHU216HW,2013-09-27 02:49:00,
2013-09-26 22:55:00,55.2,48.0,30.05,NNE,23,0.0,0.0,77,0.00,,,0.00,WUHU216HW,2013-09-27 02:55:00,
2013-09-26 23:00:00,55.2,48.0,30.05,NNE,23,0.0,0.0,77,0.00,,,0.00,WUHU216HW,2013-09-27 03:00:00,
2013-09-26 23:05:00,55.0,47.9,30.04,NNE,23,0.0,0.0,77,0.00,,,0.00,WUHU216HW,2013-09-27 03:05:00,
2013-09-26 23:11:00,54.6,47.5,30.04,NNE,23,0.0,0.0,77,0.00,,,0.00,WUHU216HW,2013-09-27 03:11:00,
2013-09-26 23:21:00,54.3,47.5,30.05,NNE,23,0.0,0.0,78,0.00,,,0.00,WUHU216HW,2013-09-27 03:21:00,
2013-09-26 23:26:00,54.3,47.5,30.05,NNE,23,0.0,0.0,78,0.00,,,0.00,WUHU216HW,2013-09-27 03:26:00,
2013-09-26 23:32:00,53.9,47.2,30.05,NNE,23,0.0,0.0,78,0.00,,,0.00,WUHU216HW,2013-09-27 03:32:00,
2013-09-26 23:37:00,53.7,47.1,30.05,NNE,23,0.0,0.0,78,0.00,,,0.00,WUHU216HW,2013-09-27 03:37:00,
2013-09-26 23:42:00,53.7,47.1,30.05,NNE,23,0.0,0.0,78,0.00,,,0.00,WUHU216HW,2013-09-27 03:42:00,
2013-09-26 23:47:00,53.4,47.1,30.05,NNE,23,0.0,0.0,79,0.00,,,0.00,WUHU216HW,2013-09-27 03:47:00,
2013-09-26 23:53:00,53.4,47.1,30.05,NNE,23,0.0,0.0,79,0.00,,,0.00,WUHU216HW,2013-09-27 03:53:00,
2013-09-26 23:58:00,53.2,46.9,30.05,NNE,23,0.0,0.0,79,0.00,,,0.00,WUHU216HW,2013-09-27 03:58:00,